| time (UTC) | temp F | wind direction | speed knots | gust knots | rain 1hr in | rain 24hr in | rain mn in | humidity % | barometer mb |
| 20260906210453 | 98 | 24 | 1.7 | 6.1 | 0.00 | 0.01 | 0.00 | ||
| 20260906193447 | 98 | 38 | 5.2 | 0.0 | 0.00 | 0.01 | 0.00 | ||
| 20260906191946 | 97 | 89 | 4.3 | 5.2 | 0.00 | 0.01 | 0.00 | ||
| 20260906190445 | 95 | 38 | 3.5 | 1.7 | 0.00 | 0.01 | 0.00 | ||
| 20260906184944 | 94 | 338 | 1.7 | 1.7 | 0.00 | 0.01 | 0.00 | ||
| 20260906183445 | 91 | 24 | 1.7 | 1.7 | 0.00 | 0.01 | 0.00 | ||
| 20260906181942 | 90 | 75 | 1.7 | 2.6 | 0.00 | 0.01 | 0.00 | ||
| 20260906180442 | 91 | 58 | 0.0 | 2.6 | 0.00 | 0.01 | 0.00 | ||
| 20260906174941 | 90 | 42 | 3.5 | 0.9 | 0.00 | 0.01 | 0.00 | ||
| 20260906173440 | 88 | 0 | 1.7 | 0.9 | 0.00 | 0.01 | 0.00 | ||
| 20260906171940 | 87 | 4 | 0.0 | 7.0 | 0.00 | 0.01 | 0.00 | ||
| 20260906170440 | 85 | 301 | 3.5 | 0.9 | 0.00 | 0.01 | 0.00 | ||
| 20260906163439 | 86 | 325 | 0.9 | 0.0 | 0.00 | 0.00 | 0.01 | ||
| 20260906160438 | 84 | 350 | 0.0 | 1.7 | 0.00 | 0.00 | 0.01 | ||
| 20260906153437 | 80 | 11 | 0.0 | 0.0 | 0.00 | 0.00 | 0.01 | ||
| 20260906151937 | 79 | 343 | 0.0 | 0.0 | 0.00 | 0.00 | 0.01 | ||
| 20260906150438 | 78 | 319 | 0.0 | 1.7 | 0.00 | 0.00 | 0.01 | ||
| 20260906143436 | 79 | 359 | 0.0 | 0.0 | 0.00 | 0.00 | 0.01 | ||
| 20260906141936 | 81 | 349 | 0.0 | 0.0 | 0.00 | 0.00 | 0.01 | ||
| 20260906140436 | 78 | 124 | 0.0 | 0.0 | 0.00 | 0.00 | 0.01 | ||
| 20260906134937 | 76 | 124 | 0.0 | 0.0 | 0.00 | 0.00 | 0.01 | ||
| 20260906133436 | 74 | 124 | 0.0 | 0.0 | 0.00 | 0.00 | 0.01 | ||
| 20260906130436 | 64 | 124 | 0.0 | 0.0 | 0.00 | 0.00 | 0.01 | ||
| 20260906123437 | 62 | 124 | 0.0 | 0.0 | 0.00 | 0.00 | 0.01 | ||
| 20260906120437 | 63 | 124 | 0.0 | 0.0 | 0.00 | 0.00 | 0.01 | ||
| 20260906113437 | 61 | 124 | 0.0 | 0.0 | 0.00 | 0.00 | 0.01 | ||
| 20260906111938 | 64 | 124 | 0.0 | 0.0 | 0.00 | 0.00 | 0.01 | ||
| 20260906110437 | 65 | 124 | 0.0 | 0.0 | 0.00 | 0.00 | 0.01 | ||
| 20260906104937 | 63 | 124 | 0.0 | 0.0 | 0.00 | 0.00 | 0.01 | ||
| 20260906103437 | 63 | 124 | 0.0 | 0.0 | 0.00 | 0.00 | 0.01 | ||
| 20260906101937 | 65 | 124 | 0.0 | 0.0 | 0.00 | 0.00 | 0.01 | ||
| 20260906100437 | 66 | 124 | 0.0 | 0.0 | 0.00 | 0.00 | 0.01 | ||
| 20260906094937 | 67 | 124 | 0.0 | 0.0 | 0.00 | 0.00 | 0.01 | ||
| 20260906093437 | 67 | 124 | 0.0 | 0.0 | 0.00 | 0.00 | 0.01 | ||
| 20260906090437 | 67 | 124 | 0.0 | 0.0 | 0.00 | 0.00 | 0.01 | ||
| 20260906083437 | 67 | 124 | 0.0 | 0.0 | 0.00 | 0.00 | 0.01 | ||
| 20260906081937 | 69 | 124 | 0.0 | 0.0 | 0.00 | 0.00 | 0.01 | ||
| 20260906080437 | 69 | 124 | 0.0 | 0.0 | 0.00 | 0.00 | 0.01 | ||
| 20260906074937 | 70 | 124 | 0.0 | 0.0 | 0.00 | 0.00 | 0.01 | ||
| 20260906073437 | 69 | 124 | 0.0 | 0.0 | 0.00 | 0.00 | 0.01 | ||
| 20260906071937 | 69 | 124 | 0.0 | 0.0 | 0.00 | 0.00 | 0.01 | ||
| 20260906070437 | 67 | 124 | 0.0 | 0.0 | 0.00 | 0.00 | 0.01 | ||
| 20260906064937 | 69 | 124 | 0.0 | 0.0 | 0.00 | 0.00 | 0.01 | ||
| 20260906063437 | 69 | 124 | 0.0 | 0.0 | 0.00 | 0.00 | 0.01 | ||
| 20260906061937 | 69 | 124 | 0.0 | 0.0 | 0.00 | 0.00 | 0.01 | ||
| 20260906060437 | 68 | 124 | 0.0 | 0.0 | 0.00 | 0.00 | 0.01 | ||
| 20260906054937 | 67 | 124 | 0.0 | 0.0 | 0.00 | 0.00 | 0.01 | ||
| 20260906053437 | 67 | 124 | 0.0 | 0.0 | 0.00 | 0.00 | 0.01 | ||
| 20260906051937 | 67 | 124 | 0.0 | 0.0 | 0.00 | 0.00 | 0.01 | ||
| 20260906050437 | 68 | 124 | 0.0 | 0.0 | 0.00 | 0.00 | 0.01 | ||
| 20260906044937 | 67 | 124 | 0.0 | 0.0 | 0.00 | 0.00 | 0.01 | ||
| 20260906043437 | 68 | 124 | 0.0 | 0.0 | 0.00 | 0.00 | 0.01 | ||
| 20260906040436 | 68 | 111 | 0.0 | 0.0 | 0.00 | 0.00 | 0.01 | ||
| 20260906033436 | 69 | 111 | 0.0 | 0.0 | 0.00 | 0.00 | 0.01 | ||
| 20260906030435 | 68 | 111 | 0.0 | 0.0 | 0.00 | 0.00 | 0.01 | ||
| 20260906023435 | 69 | 111 | 0.0 | 0.0 | 0.00 | 0.00 | 0.01 | ||
| 20260906020435 | 69 | 111 | 0.0 | 0.0 | 0.00 | 0.00 | 0.01 | ||
| 20260906014935 | 71 | 111 | 0.0 | 0.0 | 0.00 | 0.00 | 0.01 | ||
| 20260906013432 | 74 | 111 | 0.0 | 0.0 | 0.00 | 0.00 | 0.01 | ||
| 20260906011932 | 76 | 111 | 0.0 | 0.0 | 0.00 | 0.00 | 0.01 | ||
| 20260906010432 | 81 | 111 | 0.0 | 0.0 | 0.00 | 0.00 | 0.01 | ||
| 20260906004931 | 83 | 153 | 0.0 | 1.7 | 0.00 | 0.00 | 0.01 | ||
| 20260906003431 | 82 | 51 | 0.0 | 0.0 | 0.00 | 0.00 | 0.01 | ||
| 20260906001930 | 80 | 136 | 2.6 | 1.7 | 0.00 | 0.00 | 0.01 | ||
| 20260905230429 | 80 | 128 | 3.5 | 3.5 | 0.00 | 0.00 | 0.01 | ||
| 20260905224928 | 85 | 53 | 6.1 | 2.6 | 0.00 | 0.00 | 0.01 | ||
| 20260905221928 | 86 | 83 | 5.2 | 5.2 | 0.01 | 0.00 | 0.01 |